Погода Котельниково

Поиск расширенной информации на нашем сайте:

Полезная информация:

Новости сайта



02.01.2020
Опубликован Долгосрочный прогноз погоды по городам России и ближнего зарубежья на январь 2020 года.
Карты: Прогноз на январь и февраль 2020 года, Сравнение прогнозируемой аномалии приземной температуры воздуха на январь 2020 года по разным моделям.




Погода Котельниково - сегодня

Время (UTC), дата Ветер
(°,м/с) 
Видим.   Явления Облачность Т
(°С)
Тd
(°С)
f(%) Тe
(°С)
Pmin
(гПа)
dP
(гПа)
Po
(мм)
O2
(г/м3)
Тmin Tmax R s Состояние
почвы
12 18.10.20 200 (Ю) 4{11}  10 км    10/10 600 м 
[Sc]
+25.1 +9.5 37 +25  1013.2  -0.6  756  277           
15 18.10.20 270 (З) 10 км    6/6 600 м 
[Cu med, cong]
+24 +4 27 +24  1007.3  0.1  751  278    +27.4       
18 18.10.20 160 (Ю) 10 км    3/0 средняя 
[Ac trans]
+13.6 +9.7 77 +15  1014.8  0.6  757  289           
21 18.10.20 200 (Ю) 10 км  ливневой дождь  10/10 300 м кучево-дожд. 
[Cb cap]
+15.9 +14.2 90 +23  1016.9  758  286           
00 19.10.20 220 (ЮЗ) 10 км  {ливн. осадки}  10/10 600 м 
[Sc]
+14.6 +13.2 91 +21  1015.7  -1.2  757  287           
03 19.10.20 290 (З) 10 км  {ливн. осадки}  10/10 300 м 
[Sc]
+13.3 +11 86 +15  1017.2  1.4  758  289  +13.3       
06 19.10.20 320 (СЗ) 10 км  слаб. ливневой дождь  10/10 300 м кучево-дожд. 
[Cb cap]
+12.8 +10.7 87 +15  1018.4  1.2  759  290  +12.6         
09 19.10.20 360 (С) 10 км  {ливн. осадки}  6/0 средняя 
[Ac trans]
+15 +9 67 +15  1018.1  -0.2  759  288           
12 19.10.20 010 (С) 10 км    8/8 600 м 
[Sc diur, vesp]
+16.2 +7.9 58 +17  1017.3  -0.8  759  287           
15 19.10.20 360 (С) 10 км  слаб. ливневой дождь  10/10 300 м кучево-дожд. 
[Cb cap]
+13.6 +9.7 77 +16  1017.5  0.2  759  290    +16.6     
18 19.10.20 310 (СЗ) 4000 м  ливневой дождь  10/10 300 м кучево-дожд. 
[Cb cap]
+11.4 +9.1 86 +11  1018.4  0.9  759  292           
21 19.10.20 340 (С) 10 км  слаб. ливневой дождь  10/10 300 м кучево-дожд. 
[Cb cap]
+9.4 +7.3 87 +9  1020.4  1.9  761  295           
00 20.10.20 200 (Ю) 10 км    10/3 600 м кучево-дожд., верхняя 
[Cb cap|Ci fib]
+9.1 +7.5 90 +10  1021.7    751  291           
03 20.10.20 240 (ЮЗ) 10 км    10/10 600 м 
[Sc diur, vesp]
+9.4 +7.5 88 +9  1022.8  763  296  +8.7    12     
06 20.10.20 250 (З) 10 км    3/0 средняя 
[Ac trans]
+11.1 +6.6 74 +11  1023.7  763  295  +8.6         
09 20.10.20 260 (З) 10 км    4/4 600 м 
[Cu med, cong]
+13.4 +4 53 +13  1023.8  0.1  763  293           
12 20.10.20 250 (З) 4{10}  10 км    3/3 600 м 
[Cu hum]
+13.2 +3.6 52 +13  1023.2  -0.6  763  293           
15 20.10.20 250 (З) 3{10}  10 км    3/0 средняя 
[Ac trans]
+9.2 +2.4 62 +9  1023.8  0.5  763  297    +13.8       
18 20.10.20 230 (ЮЗ) 10 км    ясно 
+6.5 +0.8 67 +6  1024.4  0.6  764  301           
21 20.10.20 230 (ЮЗ) 10 км    4/4 600 м 
[Sc]
+7.1 +1.4 67 +7  1025  0.5  764  300           
00 21.10.20 250 (З) 10 км    ясно 
+5 +1.1 76 +5  1025.8  0.8  765  302           
03 21.10.20 250 (З) 10 км    ясно 
+3.4 +0.3 80 +3  1027.4  1.5  766  305  +3.4         
06 21.10.20 260 (З) 10 км    ясно 
+7.2 +2.1 70 +6  1028.8  1.5  767  301  +2.8         
09 21.10.20 260 (З) 5{10}  10 км    5/5 600 м 
[Cu med, cong]
+10.3 -0.9 46 +9  1028.4  -0.4  767  298           
12 21.10.20 260 (З) 6{11}  10 км    3/0 средняя 
[Ac As]
+11.1 -1.5 41 +10  1027.6  -0.8  766  297           
Время (UTC), дата Ветер
(°,м/с) 
Видим.   Явления Облачность Т
(°С)
Тd
(°С)
f(%) Тe
(°С)
Pmin
(гПа)
dP
(гПа)
Po
(мм)
O2
(г/м3)
Тmin Tmax R s Состояние
почвы

Для получения пояснительной информации подведите курсор к названию столбца.

ПОГОДА Котельниково - архив

Всё, что Вы хотите узнать о погоде Котельниково - удобно и подробно!

Выберите нужную дату (начиная с 1 января 2019* года) и нажмите кнопку "Найти".
Будут отображены архивные сводки погоды по пункту Котельниково, начиная с указанной даты.


Отображать данные в формате CSV (для использования в таблицах Excel)


Внимание! Наш архив погоды предназначен исключительно для личного некоммерческого использования в познавательных целях. Если Вам необходимы официальные справки о состоянии погоды (для производственных, юридических, коммерческих и т.п. целей), обращайтесь в органы Росгидромета.

*Примечание: данная дата относится к архиву по метеостанциям СССР (Россия, СНГ, Балтия).
Архив по метеостанциям Зарубежной Европы и Азии (кроме Китая) хранится 10 дней, по другим регионам земного шара (Китай, Африка, Америка, Австралия, Океания) - 1 день.

Котельниково - район местоположения метеостанции


Название, широта, долгота, высота метеостанции:
Котельниково 47.6°ш. 43.2°д. 49 м над ур. моря [Российская Федерация]

Дополнительная информация

В oтличие oт бoльшинства пoгoдных сайтoв мы публикуем пoдрoбную метеoинфoрмацию в детальнoм прoфессиoнальнoм фoрмате.

Характеристики температуры и влажнoсти вoздуха измеряются на высoте 2 м в тени вдали oт зданий и деревьев.
Скoрoсть ветра измеряется на высoте 10 м (на урoвне рoста челoвека скoрoсть ветра ниже в 1.5-2 раза). Если метеoстанция нахoдится в гoрoде или в лесу, тo скoрoсть ветра занижена на 2-4 м/с пo сравнению с oткрытым местoм. Скoрoсть ветра над акватoриями крупных рек и oзёр, а также на вершинах хoлмoв на 2-5 м/с выше, чем в oбычных услoвиях.
Атмoсфернoе давление в разных тoчках местнoсти мoжет значительнo oтличаться oт давления на метеoстанции, в зависимoсти oт услoвий рельефа (при пoдъёме на 10 м давление пoнижается примернo на 1 мм рт.ст.).